This demonstration page uses our WeatherBlox Daily Observations layout. Learn more.

Left ArrowRight Arrow

Hourly Observations for June 13, 2015

Temp ( °F °C ) Dew Point ( °F °C ) Humidity (%) Winds ( mph kmh ) Pressure ( in mb ) Visibility ( mi km ) Precip ( " mm )
12:54 am 00:54 Clear 64 17.8 61 16.1 90 90 N N/A 29.89 1012 10 16.0934 N/A
1:54 am 01:54 Cloudy 63 17.2 61 16.1 93 93 N N/A 29.88 1012 10 16.0934 N/A
2:54 am 02:54 Clear 62 16.7 60 15.6 93 93 N N/A 29.86 1011 10 16.0934 N/A
3:54 am 03:54 Partly Cloudy 61 16.1 60 15.6 97 97 SSE 3 6 29.86 1011 8 12.87472 N/A
4:54 am 04:54 Clear with Mist and Fog 60 15.6 59 15 96 96 SE 3 6 29.86 1011 6 9.65604 N/A
5:54 am 05:54 Clear with Mist and Fog 60 15.6 59 15 96 96 N N/A 29.88 1012 6 9.65604 N/A
6:54 am 06:54 Sunny with Mist and Fog 62 16.7 60 15.6 93 93 N N/A 29.88 1012 6 9.65604 N/A
7:54 am 07:54 Sunny 65 18.3 62 16.7 90 90 N N/A 29.89 1012 9 14.48406 N/A
8:54 am 08:54 Mostly Cloudy 68 20 62 16.7 81 81 SW 6 9 29.9 1012 10 16.0934 N/A
9:54 am 09:54 Cloudy 69 20.6 61 16.1 76 76 S 6 9 29.88 1012 10 16.0934 N/A
10:10 am 10:10 Cloudy 70 21 61 16 73 73 SSW 6 9 29.88 1012 10 16.0934 N/A
10:54 am 10:54 Cloudy 70 21.1 61 16.1 73 73 S 7 11 29.88 1012 10 16.0934 N/A
11:54 am 11:54 Cloudy 73 22.8 62 16.7 69 69 SW 7 11 29.86 1011 10 16.0934 N/A
12:20 pm 12:20 Partly Cloudy 74 23.3 62 16.7 67 67 S 8 13 29.83 1010 10 16.0934 N/A
12:54 pm 12:54 Partly Cloudy 75 23.9 63 17.2 66 66 VRB 7 11 29.86 1011 10 16.0934 N/A
1:04 pm 13:04 Mostly Cloudy 75 24 63 17 65 65 S 8 13 29.83 1010 10 16.0934 N/A
1:54 pm 13:54 Cloudy 76 24.4 63 17.2 64 64 VRB 7 11 29.85 1011 10 16.0934 N/A
2:05 pm 14:05 Cloudy 77 25 63 17.2 62 62 SSW 10 17 29.83 1010 10 16.0934 N/A
2:54 pm 14:54 Cloudy 76 24.4 63 17.2 64 64 S 8 13 29.84 1011 10 16.0934 N/A
3:54 pm 15:54 Cloudy 78 25.6 64 17.8 62 62 VRB 6 9 29.84 1010 10 16.0934 N/A
4:54 pm 16:54 Mostly Cloudy 77 25 66 18.9 69 69 SSE 8 13 29.82 1010 10 16.0934 N/A
5:54 pm 17:54 Mostly Sunny 78 25.6 66 18.9 67 67 S 6 9 29.81 1010 10 16.0934 N/A
6:54 pm 18:54 Mostly Sunny 77 25 65 18.3 66 66 SSE 6 9 29.8 1009 10 16.0934 N/A
7:54 pm 19:54 Sunny 75 23.9 67 19.4 76 76 S 7 11 29.81 1010 10 16.0934 N/A
8:54 pm 20:54 Sunny 74 23.3 65 18.3 74 74 SSE 7 11 29.82 1010 10 16.0934 N/A
9:54 pm 21:54 Clear 72 22.2 66 18.9 82 82 SE 6 9 29.83 1010 10 16.0934 N/A
10:54 pm 22:54 Clear 72 22.2 67 19.4 84 84 SE 6 9 29.84 1011 10 16.0934 N/A
11:54 pm 23:54 Clear 69 20.6 66 18.9 90 90 SSE 6 9 29.85 1011 10 16.0934 N/A

Powered by AerisWeather